Location: Villingen
(48.0639°N, 8.4609°E)
Time: 09:48:21
(UTC+01:00)

Envisat - Visible Passes

Search period start: 22 November 2017 00:00
Search period end: 02 December 2017 00:00
Orbit: 764 x 766 km, 98.2° (Epoch: 21 November)

Date Brightness Start Highest point End Pass type
(mag) Time Alt. Az. Time Alt. Az. Time Alt. Az.
22 Nov 5.2 19:38:55 14° N 19:38:55 14° N 19:39:36 10° N visible
23 Nov 5.1 19:01:51 13° N 19:01:51 13° N 19:02:26 10° N visible
24 Nov 5.5 20:04:59 12° NNW 20:04:59 12° NNW 20:05:18 10° NNW visible
25 Nov 5.3 19:27:55 13° N 19:27:55 13° N 19:28:23 10° N visible
26 Nov 5.2 18:50:50 11° NNE 18:50:50 11° NNE 18:51:06 10° N visible
27 Nov 5.5 19:53:57 11° N 19:53:57 11° N 19:54:09 10° N visible
28 Nov 5.3 19:16:53 11° N 19:16:53 11° N 19:17:08 10° N visible
30 Nov 5.5 19:42:55 10° N 19:42:55 10° N 19:42:59 10° N visible
01 Dec 5.3 19:05:48 10° N 19:05:48 10° N 19:05:52 10° N visible
